Change the Weather History Date:

Tuesday, February 18, 2014

  Actual Average Record
Temperature  
Mean Temperature 79 °F -  
Max Temperature 81 °F 81 °F 85 °F (1974)
Min Temperature 77 °F 61 °F 54 °F (1965)
Cooling Degree Days 14    
Growing Degree Days 29 (Base 50)    
Moisture  
Dew Point 71 °F    
Average Humidity 76    
Maximum Humidity 82    
Minimum Humidity 72    
Precipitation  
Precipitation 0.04 in - - ()
Sea Level Pressure  
Sea Level Pressure 29.90 in    
Wind  
Wind Speed 7 mph (SSE)    
Max Wind Speed 10 mph    
Max Gust Speed 16 mph    
Visibility 10 miles    
Events Rain    
Averages and records for this station are not official NWS values.
T = Trace of Precipitation, MM = Missing Value Source: NWS Daily Summary

Daily Weather History Graph

Daily Weather History Graph

Search for Another Location

Airport or City:

Trip Planner

Search our weather history database for the weather conditions in past years. The results will help you decide how hot, cold, wet, or windy it might be!

Date:

Astronomy

Feb. 18, 2014 Rise Set
Actual Time 7:08 AM HST 6:38 PM HST
Civil Twilight 6:45 AM HST 7:00 PM HST
Nautical Twilight 6:19 AM HST 7:27 PM HST
Astronomical Twilight 5:53 AM HST 7:53 PM HST
Moon 10:07 PM HST (2/18) 9:18 AM HST (2/18)
Length of Visible Light 12h 15m
Length of Day
11h 29m
Waning Gibbous, 86% of the Moon is Illuminated
Feb 18
Waning Gibbous
Feb 22
Last Quarter
Feb 28
New
Mar 8
First Quarter
Mar 16
Full

Hourly Weather History & Observations

Time (HST) Temp. Heat Index Dew Point Humidity Pressure Visibility Wind Dir Wind Speed Gust Speed Precip Events Conditions
12:56 AM - - - N/A% 29.88 in 10.0 mi SE 6.9 mph - 0.00 in Rain Light Rain
1:19 AM - - - N/A% 29.87 in 10.0 mi SE 9.2 mph - N/A   Mostly Cloudy
1:56 AM - - - N/A% 29.87 in 10.0 mi SE 9.2 mph - 0.00 in   Mostly Cloudy
2:40 AM - - - N/A% 29.85 in 10.0 mi SE 6.9 mph - 0.00 in Rain Light Rain
2:56 AM - - - N/A% 29.86 in 9.0 mi South 9.2 mph 16.1 mph 0.01 in Rain Light Rain
3:04 AM - - - N/A% 29.85 in 10.0 mi SE 6.9 mph - 0.00 in   Mostly Cloudy
3:14 AM - - - N/A% 29.85 in 6.2 mi SSW 8.1 mph - 0.00 in Rain Light Rain
3:45 AM - - - N/A% 29.85 in 10.0 mi SE 5.8 mph - 0.03 in   Scattered Clouds
3:56 AM - - - N/A% 29.86 in 10.0 mi SE 8.1 mph - 0.03 in   Scattered Clouds
4:56 AM - - - N/A% 29.87 in 10.0 mi SE 4.6 mph - N/A   Scattered Clouds
5:56 AM - - - N/A% 29.88 in 10.0 mi SE 4.6 mph - N/A   Overcast
6:30 AM - - - N/A% 29.88 in 10.0 mi SE 5.8 mph - N/A   Overcast
6:56 AM - - - N/A% 29.90 in 10.0 mi SSE 4.6 mph - N/A   Scattered Clouds
7:56 AM - - - N/A% 29.92 in 10.0 mi SE 5.8 mph - N/A   Clear
8:56 AM - - - N/A% 29.93 in 10.0 mi SE 4.6 mph - N/A   Partly Cloudy
9:48 AM - - - N/A% 29.92 in 10.0 mi SSE 4.6 mph - N/A   Mostly Cloudy
9:56 AM 77.0 °F - 71.1 °F 82% 29.93 in 10.0 mi SSE 4.6 mph - N/A   Overcast
10:07 AM 78.8 °F - 71.6 °F 78% 29.92 in 10.0 mi SSE 5.8 mph - N/A   Mostly Cloudy
10:56 AM 78.1 °F - 69.1 °F 74% 29.93 in 10.0 mi South 8.1 mph - N/A   Mostly Cloudy
11:56 AM 78.1 °F - 70.0 °F 76% 29.90 in 10.0 mi South 10.4 mph - N/A   Clear
12:56 PM 79.0 °F - 70.0 °F 74% 29.89 in 10.0 mi South 9.2 mph - N/A   Clear
1:56 PM 81.0 °F 84.9 °F 71.1 °F 72% 29.86 in 10.0 mi South 10.4 mph - N/A   Clear
2:56 PM 79.0 °F - 69.1 °F 72% 29.86 in 10.0 mi South 10.4 mph - N/A   Clear
3:56 PM 79.0 °F - 71.1 °F 77% 29.87 in 10.0 mi South 9.2 mph - N/A   Clear
4:56 PM 79.0 °F - 71.1 °F 77% 29.88 in 10.0 mi South 8.1 mph - N/A   Clear
5:56 PM 77.0 °F - 71.1 °F 82% 29.90 in 10.0 mi South 5.8 mph - N/A   Mostly Cloudy
6:17 PM - - - N/A% 29.90 in 10.0 mi SSE 4.6 mph - N/A   Scattered Clouds
6:56 PM - - - N/A% 29.92 in 10.0 mi SSE 3.5 mph - N/A   Clear
7:56 PM - - - N/A% 29.94 in 10.0 mi SE 5.8 mph - N/A   Clear
8:56 PM - - - N/A% 29.96 in 10.0 mi Calm Calm - N/A   Mostly Cloudy
9:56 PM - - - N/A% 29.96 in 10.0 mi Calm Calm - N/A   Clear
10:56 PM - - - N/A% 29.96 in 10.0 mi Calm Calm - N/A   Partly Cloudy
11:56 PM - - - N/A% 29.96 in 10.0 mi Calm Calm - N/A   Partly Cloudy